Starlink 33804

operational
NORAD ID: 63511 Int'l Des: 2025-071 Owner: SPXS Country: US Constellation: starlink
LEOCIRCULAR

Starlink 33804について

説明を読み込み中...

リアルタイム位置

3D地球を読み込み中...

次回通過

高度履歴

Altitude vs Time

uPlot chart will show altitude changes over time

軌道要素

1 63511U 25071U 25303.75928951 .00010725 00000-0 37367-3 0 9994
2 63511 53.1611 23.6349 0001398 61.7667 298.3475 15.30201945 32504
Epoch: Oct 30, 2025 • Age: 13 hours

現在のステータス

高度 475.5 km
速度 7.63 km/s
衛星直下点 13.03°N, 39.16°E
打ち上げ日 Apr 7, 2025
運用期間 0.5 years
タイプ internet

技術仕様

分類 Payload
質量 575.00 kg
乾燥質量 530.00 kg
総質量 575.00 kg
長さ 0.30 m
直径 4.10 m
スパン 29.00 m
形状 Box + pan
製造者 SPXS
バスタイプ Starlink V2MO
フェーズステータス In Orbit
所有者/国 SPXS/US

大規模コンステレーション

Loading constellations...